CAPE
0 0 0 0 0 0 19 1514 1564 1518 1367 1114 1051 1303 1313 1104 786 722 806 1146 968 733 434 66 7 0 0 0 0 0 0 0 0 0 0 0 0 1 4 17 2 1 0
0 0 0 0 181 94 414 1591 1847 1656 1317 1156 1063 1351 737 132 2 0 0 1 15 24 2 1 0 0 0 0 0 0 0 0 0 0 0 2 0 3 1 1 0 0 0
0 0 0 0 83 735 1338 1610 1990 1895 1579 1345 631 50 1 1 0 0 0 0 0 0 0 0 0 0 0 0 0 0 0 0 0 0 0 1 0 0 0 0 0 0 0
0 0 5 4 6 328 1644 2378 2437 2022 1526 903 422 382 126 0 0 1 3 0 0 0 0 0 0 0 0 0 0 0 0 9 0 0 0 0 0 0 0 0 0 0 0
0 0 0 0 1 0 391 1719 2245 1773 1235 579 281 56 0 1 3 2 2 2 2 1 0 0 0 0 0 0 0 0 0 0 0 0 0 0 0 0 0 1 0 0 0
0 0 0 0 0 0 0 158 817 542 345 147 1 1 0 0 1 3 2 3 1 0 0 0 0 0 0 0 0 0 0 0 0 0 0 0 0 0 0 0 0 0 0
0 0 0 0 0 0 0 0 1 15 0 0 1 0 0 2 2 5 3 2 0 0 0 0 0 0 0 0 0 0 1 2 1 0 0 0 0 0 0 2 1 1 0
0 0 0 4 0 0 0 0 1 1 1 1 1 2 3 4 5 2 0 0 0 0 0 0 2 3 3 3 0 0 0 0 0 0 0 0 0 0 0 0 2 3 11
0 0 0 0 0 0 0 0 1 3 2 2 2 2 3 3 4 3 0 2 2 4 3 2 2 0 0 0 0 0 0 0 0 0 0 0 0 0 0 0 0 0 1
0 0 0 0 1 2 0 0 0 0 2 1 2 3 3 2 1 2 1 2 3 3 0 0 0 0 0 0 0 0 0 0 0 0 0 0 0 0 0 0 0 0 3
6 2 1 7 22 21 0 0 0 0 1 0 0 0 1 1 1 0 0 1 1 0 1 1 0 0 0 0 0 0 0 0 0 0 0 0 0 0 0 0 0 0 0
93 46 32 10 44 0 0 0 0 0 0 0 0 0 1 0 0 1 1 1 1 0 0 0 0 0 0 0 0 0 0 0 0 0 0 0 0 0 0 0 0 0 0
23 102 110 35 74 20 0 0 0 0 0 1 1 1 1 1 1 0 0 0 1 0 1 0 0 0 0 0 0 0 0 0 0 0 0 0 0 0 0 0 0 0 0
5 77 75 76 79 56 12 1 0 0 0 0 0 0 1 1 1 0 0 0 0 0 0 0 0 0 0 0 0 0 0 0 0 0 0 0 0 0 0 0 0 0 0
1 121 81 57 12 16 13 1 12 1 0 0 0 0 0 1 1 0 0 0 0 0 0 0 0 0 0 0 0 0 0 0 0 0 0 0 0 0 0 0 0 0 0
0 7 0 0 0 0 0 0 0 14 9 23 7 0 0 0 0 0 1 0 0 0 0 0 0 0 0 0 0 0 0 0 0 0 0 0 0 0 0 0 0 0 0
0 0 0 0 0 0 0 0 0 0 2 18 23 6 0 0 0 1 0 1 0 0 0 0 0 0 0 0 0 0 0 0 0 0 0 0 0 0 0 0 0 0 0
0 0 0 0 0 0 0 0 0 0 0 18 22 26 11 6 0 0 0 0 0 0 0 0 0 0 0 0 0 0 0 0 0 0 0 0 0 0 0 0 0 0 0
0 0 0 0 0 0 0 0 0 0 0 0 14 36 20 1 1 0 0 0 0 0 0 0 0 0 0 0 0 0 0 0 0 0 0 0 0 0 0 0 0 0 0
0 0 0 0 0 0 0 0 0 0 0 0 10 7 0 0 0 0 0 0 0 0 0 0 0 0 0 0 0 0 0 2 1 0 0 0 0 0 0 0 0 0 0
0 0 0 0 0 0 0 0 0 0 0 0 6 10 0 0 0 0 0 0 0 0 0 0 0 1 0 0 0 0 0 1 1 0 0 0 0 1 0 0 0 0 0
0 0 0 0 0 0 0 0 0 0 0 0 0 0 0 2 1 1 1 0 0 0 0 1 0 3 1 2 2 1 1 1 1 1 1 0 0 0 0 0 0 0 0
0 0 0 0 0 0 0 0 0 0 0 0 0 0 1 2 2 2 3 3 1 1 1 0 0 1 1 1 0 1 0 0 0 0 0 0 0 0 0 0 0 0 0
0 0 0 0 0 0 0 0 3 0 0 0 0 1 2 2 3 4 4 5 2 2 3 0 0 0 2 2 1 1 0 0 0 0 0 0 0 0 0 0 0 0 0
1 0 0 0 0 0 0 0 0 0 0 0 0 0 2 3 4 4 4 5 3 1 0 0 0 0 1 0 3 3 2 1 0 0 0 0 0 0 0 0 0 0 0
35 23 3 0 0 0 0 0 0 0 0 0 0 1 1 3 3 4 4 1 0 0 1 2 0 2 3 2 3 2 2 1 0 0 0 1 0 0 0 0 0 0 0
CIN
0 0 0 0 0 0 -201 -58 -102 -109 -110 -94 -58 -9 -3 -14 -110 -131 -81 -42 -39 -26 -32 -134 -231 0 0 0 0 0 0 0 0 0 0 -4 -2 -10 -11 -5 -11 -31 0
0 0 0 0 -212 -220 -63 -31 -82 -94 -95 -86 -59 -6 -55 -243 -174 0 0 -222 -195 -119 -190 -139 0 0 0 0 0 0 0 0 0 0 0 -2 -6 -15 -24 -11 -4 0 0
0 0 0 0 -373 -49 -13 -13 -53 -88 -66 -83 -151 -450 0 0 0 0 0 0 0 0 0 0 0 0 0 0 0 0 0 0 0 0 0 -1 0 0 0 0 0 0 0
0 0 -343 -497 -386 -265 -83 -13 -41 -60 -56 -138 -188 -179 -233 0 0 0 0 0 0 0 0 0 0 0 0 0 0 0 -3 -18 -5 0 0 0 0 0 0 0 0 0 0
0 0 0 0 -414 0 -290 -102 -58 -59 -91 -196 -234 -305 -45 0 0 0 0 0 0 0 0 0 0 0 0 0 0 0 0 0 0 0 0 -2 0 0 0 0 0 0 0
0 0 0 0 0 0 0 -350 -166 -191 -230 -274 0 0 0 0 0 0 0 0 0 0 0 0 0 0 0 0 0 0 0 0 0 0 0 0 0 0 0 0 0 0 0
0 0 0 0 0 0 0 0 -48 -290 0 0 0 0 0 0 0 0 0 0 0 0 0 0 0 0 0 0 0 0 0 0 0 0 0 0 0 0 0 -14 -7 0 0
0 0 0 -292 0 0 0 0 0 0 0 0 0 0 0 0 0 0 0 0 0 0 0 0 0 0 0 0 0 0 0 0 0 0 0 0 0 0 0 0 -5 -3 -1
0 0 0 0 0 0 0 0 0 0 0 0 0 0 0 0 0 0 0 0 0 0 0 0 0 0 0 0 0 0 0 0 0 0 0 0 0 0 0 0 0 -7 -1
0 0 0 0 -212 -101 0 -6 0 0 0 0 0 0 0 0 0 0 0 0 0 0 0 0 0 0 0 0 0 0 0 0 0 0 0 0 0 0 0 0 0 0 -1
-8 -6 -91 -166 -104 -137 0 -3 0 0 0 0 0 0 0 0 0 0 0 0 0 0 0 0 0 0 0 0 0 0 0 0 0 0 0 0 0 0 0 0 0 0 0
-6 -14 -11 -94 -45 0 0 0 0 0 0 0 0 0 0 0 0 0 0 0 0 0 0 0 0 0 0 0 0 0 0 0 0 0 0 0 0 0 0 0 0 0 0
-16 -12 -24 -19 -26 -17 -1 0 0 -1 0 0 0 0 0 0 0 0 0 0 0 0 0 0 0 0 0 0 0 0 0 0 0 0 0 0 0 0 0 0 0 0 0
-24 -54 -56 -54 -6 -14 -6 -31 0 0 0 0 -1 0 -1 0 0 0 0 0 0 0 0 0 0 0 0 0 0 0 0 0 0 0 0 0 0 0 0 0 0 0 0
-2 -38 -53 -75 -12 -77 -115 -2 -9 -12 0 0 0 0 -2 -1 -1 0 0 0 0 0 0 0 0 0 0 0 0 0 0 0 0 0 0 0 0 0 0 0 0 0 0
-1 -93 0 0 0 0 0 0 0 -62 -41 -26 -92 -1 0 0 0 0 0 0 0 0 0 0 0 0 0 0 0 0 0 0 0 0 0 0 0 0 0 0 0 0 0
0 0 -68 0 0 0 0 0 0 0 -34 -77 -26 -28 -32 0 0 0 0 0 0 0 0 0 0 0 0 0 0 0 0 0 0 0 0 0 0 0 0 0 0 0 0
0 0 0 0 0 0 0 0 0 0 0 -25 -3 -12 -58 -138 0 0 0 0 0 0 0 0 0 0 0 0 0 0 0 0 0 0 0 0 0 0 0 0 0 0 0
0 0 0 0 0 0 0 0 0 0 0 0 -13 -13 -31 -82 0 0 0 0 0 0 0 0 0 0 0 0 0 0 0 0 0 0 0 0 0 0 0 0 0 0 0
0 0 0 0 0 0 0 0 0 0 0 0 -33 -58 -5 -5 0 0 0 0 0 0 0 0 0 0 0 0 0 0 0 0 0 0 0 0 0 0 0 0 0 0 0
0 0 0 0 0 0 0 0 0 0 0 0 -29 -53 0 0 0 0 0 0 0 0 0 0 0 0 0 0 0 0 0 0 0 0 0 0 0 0 0 0 0 0 0
0 0 0 0 0 0 0 0 0 0 0 0 0 0 0 0 0 0 0 0 0 0 0 0 0 0 0 0 0 0 0 0 0 0 0 0 0 0 0 0 0 0 0
0 0 0 0 0 0 0 0 0 0 0 0 0 0 0 0 0 0 0 0 0 0 0 0 0 0 0 0 0 0 -1 0 0 0 0 0 0 0 0 0 0 0 0
0 0 0 0 0 0 0 0 -21 0 0 0 0 0 0 0 0 0 0 0 0 0 0 0 0 0 0 0 0 0 0 0 0 0 0 0 0 0 0 -1 0 0 0
-1 0 0 0 0 0 0 0 0 0 0 0 0 0 0 0 0 0 0 0 0 0 0 0 0 0 0 0 0 0 0 0 0 0 0 0 0 0 0 0 0 0 0
-13 -11 -5 0 0 0 0 0 0 0 0 0 0 0 0 0 0 0 0 0 0 0 0 0 0 0 0 0 0 0 0 0 0 0 0 0 0 0 0 0 0 0 0
Wind_Speed
20 15 11 15 16 12 8 9 9 8 8 9 10 12 11 9 10 10 11 13 14 14 14 14 12 12 14 14 13 15 14 13 12 10 13 13 12 12 11 10 9 9 11
20 8 11 14 15 9 3 4 8 8 8 8 8 9 10 10 12 13 15 16 17 16 16 15 14 14 17 16 14 14 11 19 12 14 13 15 17 16 14 10 11 12 13
22 12 13 16 17 13 8 4 5 7 6 5 6 8 10 13 16 17 17 18 16 18 17 17 18 18 18 18 17 15 17 16 18 15 17 18 23 16 14 14 13 12 14
18 17 18 18 15 18 18 5 3 5 6 6 8 11 14 15 16 16 16 18 18 18 17 17 16 17 18 17 17 19 23 22 17 16 16 16 18 22 21 16 16 15 15
18 18 18 18 17 19 19 17 8 7 8 9 10 11 13 14 14 14 16 17 16 15 14 14 14 15 16 18 22 18 21 19 18 19 15 18 17 19 18 22 19 15 17
16 17 17 17 18 18 18 17 12 13 11 10 11 12 13 14 14 15 15 15 13 13 12 12 14 16 15 17 17 16 18 16 14 16 19 17 16 18 19 19 18 19 19
18 19 17 16 17 17 17 16 13 13 11 12 12 13 14 14 15 15 15 14 14 13 12 10 10 10 14 13 14 18 14 15 15 14 16 18 16 16 17 16 17 20 20
19 19 18 18 18 18 17 16 15 15 14 13 13 12 13 14 14 14 13 13 13 10 8 8 13 14 14 14 14 15 13 12 12 11 13 16 17 18 19 20 23 26 26
22 21 20 22 21 18 17 16 15 15 15 15 14 13 12 13 13 11 12 11 10 10 10 11 12 14 12 9 10 9 9 6 6 6 7 9 11 13 14 13 14 20 27
23 22 24 22 20 18 16 14 13 14 15 14 13 13 11 10 9 8 8 8 9 9 10 10 10 9 8 9 8 9 9 8 8 8 8 9 10 10 10 13 14 16 19
25 23 20 19 18 15 13 11 11 14 13 12 10 9 7 6 4 4 5 6 6 7 6 6 6 5 6 7 8 8 8 9 10 9 9 8 8 10 12 13 15 14 19
25 23 22 18 16 14 13 14 13 11 10 8 7 6 5 4 4 5 4 4 3 4 3 4 5 5 5 6 7 8 8 9 9 9 9 8 10 10 12 17 19 19 21
33 21 19 18 15 15 15 15 14 12 10 8 7 5 5 4 4 4 5 3 4 5 4 4 3 4 6 7 8 9 9 9 9 9 9 9 9 10 10 13 14 17 19
33 26 21 20 20 18 17 15 12 10 10 8 10 9 9 8 6 5 5 5 6 4 6 4 3 4 6 6 7 8 8 8 9 9 9 9 10 11 10 10 10 11 15
35 29 25 24 27 24 20 23 16 16 11 13 14 13 10 9 7 8 7 6 6 5 5 5 5 4 4 5 6 7 8 9 10 10 12 14 16 16 15 14 13 15 16
32 27 25 25 23 26 26 29 27 23 16 11 13 13 13 12 10 7 9 7 7 9 5 5 3 3 4 5 6 7 7 7 8 9 12 13 13 14 14 16 16 17 16
29 30 29 29 29 29 30 29 31 29 27 19 16 13 13 16 9 8 9 10 9 7 7 5 2 1 4 3 5 6 6 8 9 8 11 14 15 15 14 15 15 16 17
32 33 36 36 35 33 34 37 37 37 35 31 27 14 11 11 10 8 13 11 9 8 7 6 3 1 2 2 3 5 8 9 11 10 10 12 13 14 14 14 15 17 17
36 38 39 38 35 36 39 39 44 46 42 36 37 27 15 14 10 10 11 11 10 9 8 6 4 2 1 2 1 4 7 8 10 12 11 11 12 12 13 13 14 15 15
37 37 36 36 36 39 39 41 43 47 45 41 29 25 18 17 14 15 14 12 10 8 6 5 4 2 2 3 2 2 6 8 11 11 12 11 12 11 13 12 12 13 12
40 39 38 38 38 41 38 40 41 43 42 38 29 22 21 18 18 17 16 14 12 9 7 5 4 4 3 4 3 3 5 9 11 12 13 12 10 10 11 11 12 11 9
45 44 44 45 41 40 37 39 42 40 41 41 33 24 25 21 25 21 19 17 14 12 10 8 5 5 4 4 4 3 6 7 11 13 13 12 10 10 11 12 11 8 8
48 46 46 47 50 44 39 45 40 38 40 37 32 26 26 26 25 24 22 20 17 15 12 10 7 6 5 4 4 4 6 7 12 12 11 10 7 6 8 11 8 8 8
47 47 46 46 47 46 43 44 39 38 38 36 31 28 26 27 24 26 25 24 20 17 15 12 9 7 5 5 4 6 7 8 11 8 7 6 4 6 8 9 8 8 7
44 45 46 47 49 47 46 45 40 37 39 36 32 29 27 27 27 29 26 25 23 19 18 14 10 9 8 8 6 5 7 7 6 5 6 5 4 4 6 7 6 5 7
46 42 40 42 44 45 44 44 42 37 38 38 32 31 29 28 27 27 27 25 23 19 17 13 11 9 8 6 6 4 4 2 2 2 3 3 3 3 3 2 1 0 4
Wind_Direction
318 325 329 323 321 318 309 190 189 201 209 221 230 227 240 243 273 274 282 277 274 275 277 277 269 271 281 279 280 283 278 281 276 280 287 296 301 299 296 294 296 303 310
317 326 339 335 328 331 312 180 187 197 211 225 242 255 270 273 277 284 285 291 289 286 283 277 276 273 282 285 278 275 273 284 267 274 283 286 292 299 301 293 290 297 307
325 348 345 339 333 330 327 313 198 202 223 246 253 273 282 279 279 284 286 289 291 291 290 285 287 285 286 288 289 292 278 275 267 270 284 281 283 277 296 296 298 298 297
327 332 332 339 339 325 316 310 283 241 249 248 249 242 259 270 279 282 286 290 291 290 293 292 292 294 296 295 292 300 296 288 254 268 281 298 295 281 280 287 291 296 293
337 330 330 333 334 321 314 313 303 287 271 260 254 257 266 275 277 280 286 291 292 294 296 298 300 301 306 308 309 300 299 301 288 286 282 292 295 301 286 282 282 290 298
339 340 339 335 333 328 317 313 308 301 293 276 267 265 265 268 274 278 280 286 288 293 296 301 305 307 303 302 306 303 313 309 299 303 300 301 296 303 300 293 287 280 286
329 330 332 332 335 331 324 319 314 305 299 286 278 273 271 271 270 273 273 274 279 284 290 300 302 307 317 303 313 301 309 313 307 317 310 311 310 313 314 316 306 296 295
327 327 326 326 328 325 323 320 317 312 308 302 293 287 279 276 275 274 273 269 272 269 276 290 320 307 307 320 316 314 318 317 314 327 318 312 309 311 307 305 301 300 299
320 321 320 319 320 320 320 319 316 315 311 307 302 297 292 289 285 282 281 274 279 283 292 299 307 328 326 340 340 342 0 19 7 358 354 332 326 321 316 311 303 301 299
314 317 318 318 319 320 320 317 318 317 314 312 309 306 307 306 302 296 291 287 294 294 300 302 317 323 333 354 359 359 10 23 27 17 0 340 332 329 324 316 310 307 313
307 309 319 321 316 319 319 316 318 320 317 314 314 314 315 320 311 304 285 288 288 295 299 310 330 344 352 357 18 19 23 14 15 15 9 4 4 350 340 331 326 313 306
312 311 308 315 310 308 309 304 308 314 311 307 303 304 306 296 285 281 289 285 285 302 299 311 331 352 11 22 18 23 23 19 23 34 34 21 12 358 346 324 318 312 308
319 305 303 301 304 298 301 301 301 308 307 295 288 286 280 269 264 254 268 263 279 284 294 303 340 4 9 12 19 18 28 32 34 44 44 38 31 7 355 342 336 323 313
316 316 312 308 303 299 294 295 302 299 292 281 281 277 270 266 253 250 252 262 272 271 283 292 330 353 8 16 19 19 34 43 40 41 38 33 14 359 355 349 346 334 316
310 307 298 299 296 300 307 311 301 286 275 268 268 268 260 255 251 262 262 260 252 255 263 281 307 345 4 22 28 42 51 50 41 29 16 0 354 354 354 348 347 335 328
304 304 302 302 301 300 298 302 309 308 305 272 246 260 254 251 242 236 256 244 242 253 248 260 288 321 348 23 49 52 38 36 27 17 2 4 3 360 357 355 349 342 330
311 309 306 302 300 296 297 298 304 306 302 264 266 251 249 255 234 238 236 244 248 242 245 246 240 317 347 51 70 59 35 11 358 7 1 355 356 355 354 353 350 348 343
311 307 306 304 300 297 295 294 296 295 283 289 281 268 253 247 223 237 248 242 241 242 245 244 227 279 359 86 87 9 354 352 346 347 349 350 350 353 353 354 348 345 344
306 305 305 305 302 298 293 292 288 287 283 283 280 275 259 235 228 217 224 232 243 245 242 227 208 190 231 146 124 347 341 342 339 339 341 343 341 340 340 348 347 348 349
308 308 306 303 301 297 294 292 288 284 280 283 282 273 251 246 238 227 215 228 230 228 223 216 216 224 225 187 229 315 330 326 329 332 334 333 331 331 330 335 340 341 348
306 304 303 301 299 295 293 291 290 287 285 285 279 265 249 240 240 232 230 233 230 231 233 223 236 257 242 239 239 294 317 321 323 321 323 326 325 324 324 327 331 338 357
300 299 299 297 293 292 287 289 288 291 291 284 278 262 252 251 254 242 234 228 228 233 236 245 252 257 255 238 235 266 314 323 322 322 325 325 322 324 323 326 330 342 348
298 297 295 292 286 288 286 284 287 290 290 287 278 267 256 254 249 240 235 231 228 230 233 237 242 251 256 243 236 271 313 322 328 332 332 333 333 337 333 327 328 331 335
298 296 293 290 287 287 288 283 283 288 287 285 278 268 257 251 245 242 235 234 227 233 235 238 241 240 240 257 250 284 311 322 334 348 356 1 9 354 340 330 320 318 321
299 295 292 289 286 286 282 283 284 284 282 283 280 268 258 250 244 241 233 233 238 227 225 230 225 218 234 229 229 257 301 318 338 10 26 43 60 14 353 337 325 315 308
303 298 294 292 291 286 282 280 281 281 282 277 279 268 257 249 245 241 241 243 245 242 241 235 223 239 262 232 220 249 280 285 136 46 74 101 131 139 116 107 97 157 296